Flag for U.S.A. Weather past 2 weeks in Antioch, California, U.S.A.

Now
51 °F

Clear.


Feels Like: 51 °F
Forecast: 44 / 65 °F
Wind: No wind

Location: Buchanan Field

Current Time: Jan 27, 2015 at 10:43:28 PM

Latest Report: Jan 27, 2015 at 9:53 PM


Visibility: 10 mi

Pressure: 30.22 "Hg

Humidity: 80%

Dew point: 45 °F

Location of AntiochLocation

Historic Weather in Antioch — Graph

°F

Antioch temperature yesterday

Maximum temperature yesterday: 66 °F (at 2:53 PM)
Minimum temperature yesterday: 39 °F (at 3:58 AM)
Average temperature yesterday: 51 °F

Past Weeks' High & Low Weather Summary

 TemperatureHumidityPressure
High67 °F (Jan 27, 3:53 PM)100% (Jan 16, 7:53 AM)30.39 "Hg (Jan 16, 7:53 AM)
Low38 °F (Jan 23, 6:53 AM)42% (Jan 26, 2:53 PM)29.93 "Hg (Jan 26, 2:53 PM)
Average50 °F81%30.18 "Hg
* Reported Jan 12 9:53 PM — Jan 27 9:53 PM, Antioch, Weather by CustomWeather, © 2014

Note: Actual official high and low records may vary slightly from our data, if they occured in-between our weather recording intervals... More about our weather records

Advertising

Antioch weather history for previous 24 hours

 ConditionsComfort  
Time TempWeatherWind HumidityBarometerVisibility
9:53 PM
Jan 27
51 °FClear.No wind80%30.22 "Hg10 mi
8:53 PM53 °FClear.3 mph77%30.21 "Hg10 mi
7:53 PM56 °FClear.No wind72%30.20 "Hg9 mi
6:53 PM59 °FPassing clouds.No wind64%30.19 "Hg10 mi
5:53 PM58 °FClear.5 mph67%30.18 "Hg10 mi
4:53 PM64 °FBroken clouds.No wind54%30.17 "Hg10 mi
3:53 PM67 °FSunny.No wind45%30.17 "Hg10 mi
2:53 PM64 °FPartly sunny.5 mph56%30.17 "Hg9 mi
1:53 PM63 °FPartly sunny.6 mph58%30.16 "Hg8 mi
12:53 PM62 °FOvercast.7 mph62%30.16 "Hg7 mi
11:53 AM61 °FSunny.6 mph62%30.16 "Hg7 mi
10:53 AM57 °FOvercast.6 mph72%30.18 "Hg5 mi
9:53 AM54 °FPartly sunny.No wind80%30.16 "Hg4 mi
8:53 AM53 °FPartly sunny.No wind83%30.13 "Hg6 mi
7:53 AM50 °FFog.No wind89%30.12 "Hg3 mi
6:53 AM50 °FFog.3 mph89%30.09 "Hg5 mi
5:53 AM50 °FFog.No wind89%30.07 "Hg5 mi
4:53 AM51 °FFog.3 mph86%30.05 "Hg5 mi
3:53 AM50 °FFog.3 mph89%30.03 "Hg4 mi
2:53 AM50 °FFog.6 mph86%30.02 "Hg5 mi
1:53 AM52 °FClear.No wind80%30.00 "Hg7 mi
12:53 AM51 °FFog.No wind86%29.99 "Hg5 mi
11:53 PM
Jan 26
52 °FClear.No wind83%29.96 "Hg6 mi
10:53 PM52 °FClear.No wind83%29.96 "Hg6 mi
Weather by CustomWeather, © 2014

See weather overviewHow to use our weather pages